Volver al catálogo

METEOR 2-5 DEB

ActivoPO
NORAD 36923·DEBRIS·🇷🇺 Russia

Lanzado Oct 31, 1979 desde Plesetsk Cosmodrome

Loading…

Próximos Pases (próximas 24 horas)

TLE

EnvejeciendoSource: Space-Track

Época: Sep 9, 2026, 00:08 UTC

1 36923U 79095BQ  26252.00564970  .00008048  00000-0  18030-2 0  9995
2 36923  81.1886 349.8117 0005013 242.0770 117.9919 14.56567779 37588

Sigue METEOR 2-5 DEB en tiempo real con AllMySat

Download on the App Store